[ ตารางข้อมูล ] [ Min-Max ] [ วันนี้2 ] [ วันนี้4 ] [ เทียบ-A 3วัน ] [ เทียบ-B 4วัน ]   

วันนี้4   [ ◀ ช่วงเก่ากว่า ] [ ช่วงที่ 26 ] [ ช่วงใหม่กว่า ▶ ] [ ล่าสุด ]    [ 3 ชั่วโมง ] [ 6 ชั่วโมง ] [ 12 ชั่วโมง ] [ 24 ชั่วโมง ]   วันนี้4

อุณภูมิในตู้ Knockdown4529  ราย 6 ชั่วโมง  ที่วัดได้ ในช่วงวันเวลา 25/08/2026 (01:31) ถึง 25/08/2026 (07:31) 
ความชื้นในตู้ Knockdown4529  ราย 6 ชั่วโมง  ที่วัดได้ ในช่วงวันเวลา 25/08/2026 (01:31) ถึง 25/08/2026 (07:31) 
การใช้ไฟฟ้าในตู้ Knockdown4529  ราย 6 ชั่วโมง  ที่วัดได้ ในช่วงวันเวลา 25/08/2026 (01:31) ถึง 25/08/2026 (07:31) 

  DS18B20SHTC3PZEM-004TWiFi 
IDDate d/m/Y & Timedata1
สูง
data2
ต่ำ
data3
นอก
temp
pcb
hum
pcb
VoltAmpWattrssiTime
 15804  25/08/2026 07:29:21  29.2  29.3  27.4  30.1  66.8  234.7  0.04  4.5  -80  07:29 
 15803  25/08/2026 07:24:37  29.2  29.3  27.4  30.1  66.7  232.9  0.04  4.5  -82  07:24 
 15802  25/08/2026 07:19:54  29.2  29.3  27.3  30.2  66.8  233.1  0.04  4.5  -82  07:19 
 15801  25/08/2026 07:15:11  29.2  29.3  27.2  30.0  66.8  233.4  0.04  4.5  -81  07:15 
 15800  25/08/2026 07:10:27  29.2  29.3  27.1  30.1  66.8  230.3  0.04  4.5  -79  07:10 
 15799  25/08/2026 07:05:43  29.2  29.3  27.0  30.1  66.8  232.9  0.04  4.5  -78  07:05 
 15798  25/08/2026 07:00:59  29.2  29.3  26.9  30.1  66.8  231.4  0.04  4.5  -78  07:00 
 15797  25/08/2026 06:56:16  29.2  29.4  27.0  30.1  66.8  232.7  0.04  4.5  -80  06:56 
 15796  25/08/2026 06:51:30  29.2  29.4  27.2  30.1  67.0  231.8  0.04  4.5  -81  06:51 
 15795  25/08/2026 06:46:46  29.2  29.4  27.2  30.1  66.8  233.0  0.04  4.5  -80  06:46 
 15794  25/08/2026 06:42:03  29.2  29.4  27.2  30.1  66.9  231.4  0.04  4.5  -81  06:42 
 15793  25/08/2026 06:37:19  29.3  29.4  27.2  30.2  66.9  231.7  0.04  4.5  -80  06:37 
 15792  25/08/2026 06:32:36  29.3  29.4  27.0  30.1  66.9  230.9  0.04  4.5  -80  06:32 
 15791  25/08/2026 06:27:53  29.3  29.4  26.8  30.2  67.0  227.1  0.04  4.5  -81  06:27 
 15790  25/08/2026 06:23:09  29.3  29.4  26.9  30.2  67.1  229.2  0.04  4.5  -79  06:23 
 15789  25/08/2026 06:18:25  29.4  29.4  26.9  30.2  67.0  230.2  0.04  4.5  -79  06:18 
 15788  25/08/2026 06:13:41  29.4  29.5  26.9  30.3  67.1  228.0  0.04  4.5  -81  06:13 
 15787  25/08/2026 06:08:58  29.4  29.5  26.9  30.1  67.0  219.1  0.04  4.5  -80  06:08 
 15786  25/08/2026 06:04:15  29.4  29.5  26.9  30.2  66.9  225.9  0.04  4.5  -76  06:04 
 15785  25/08/2026 05:59:32  29.4  29.6  27.0  30.5  67.0  227.6  0.04  4.5  -78  05:59 
 15784  25/08/2026 05:54:48  29.4  29.6  27.0  30.5  66.9  232.2  0.04  4.5  -79  05:54 
 15783  25/08/2026 05:50:05  29.4  29.6  27.0  30.4  66.8  230.5  0.04  4.5  -79  05:50 
 15782  25/08/2026 05:45:21  29.5  29.6  26.7  30.3  66.8  230.8  0.04  4.5  -79  05:45 
 15781  25/08/2026 05:40:38  29.5  29.6  26.7  30.4  66.9  230.3  0.04  4.5  -79  05:40 

Data every 5 minute.


ใช้เวลาประมวลผล 0.03706 วินาที